Time,TemperatureF,DewpointF,PressureIn,WindDirection,WindDirectionDegrees,WindSpeedMPH,WindSpeedGustMPH,Humidity,HourlyPrecipIn,Conditions,Clouds,dailyrainin,SoftwareType,DateUTC
2013-05-20 00:01:00,67.0,61.3,30.02,SSE,158,1.0,7.0,82,0.00,,---,0.00,VWS V13.01,2013-05-20 04:01:00,
2013-05-20 00:06:00,66.9,61.2,30.02,SE,143,0.0,8.0,82,0.00,,---,0.00,VWS V13.01,2013-05-20 04:06:00,
2013-05-20 00:11:00,67.0,61.3,30.01,SE,144,3.0,9.0,82,0.00,,---,0.00,VWS V13.01,2013-05-20 04:11:00,
2013-05-20 00:16:00,67.0,61.3,30.01,SSE,150,2.0,9.0,82,0.00,,---,0.00,VWS V13.01,2013-05-20 04:16:00,
2013-05-20 00:21:00,67.0,61.3,30.00,SE,143,5.0,9.0,82,0.00,,---,0.00,VWS V13.01,2013-05-20 04:21:00,
2013-05-20 00:26:00,66.9,61.2,30.00,ESE,121,7.0,10.0,82,0.00,,---,0.00,VWS V13.01,2013-05-20 04:26:00,
2013-05-20 00:31:00,66.9,61.2,30.00,SE,135,2.0,7.0,82,0.00,,---,0.00,VWS V13.01,2013-05-20 04:31:00,
2013-05-20 00:36:00,66.8,61.1,30.00,SE,138,5.0,13.0,82,0.00,,---,0.00,VWS V13.01,2013-05-20 04:36:00,
2013-05-20 00:41:00,66.7,61.0,30.00,SSE,156,3.0,13.0,82,0.00,,---,0.00,VWS V13.01,2013-05-20 04:41:00,
2013-05-20 00:46:00,66.6,60.9,30.00,South,188,3.0,13.0,82,0.00,,---,0.00,VWS V13.01,2013-05-20 04:46:00,
2013-05-20 00:51:00,66.6,60.9,30.00,SE,126,3.0,13.0,82,0.00,,---,0.00,VWS V13.01,2013-05-20 04:51:00,
2013-05-20 00:56:00,66.6,60.9,30.00,SSW,213,4.0,13.0,82,0.00,,---,0.00,VWS V13.01,2013-05-20 04:56:00,
2013-05-20 01:01:00,66.6,60.9,30.00,ESE,104,1.0,2.0,82,0.00,,---,0.00,VWS V13.01,2013-05-20 05:01:00,
2013-05-20 01:06:00,66.5,60.8,29.99,South,190,3.0,9.0,82,0.00,,---,0.00,VWS V13.01,2013-05-20 05:06:00,
2013-05-20 01:11:00,66.4,60.7,29.99,SSW,211,3.0,9.0,82,0.00,,---,0.00,VWS V13.01,2013-05-20 05:11:00,
2013-05-20 01:16:00,66.3,60.7,29.99,SSW,207,2.0,9.0,82,0.00,,---,0.00,VWS V13.01,2013-05-20 05:16:00,
2013-05-20 01:21:00,66.1,60.8,29.98,SSE,160,2.0,9.0,83,0.00,,---,0.00,VWS V13.01,2013-05-20 05:21:00,
2013-05-20 01:26:00,66.0,60.7,29.98,South,180,2.0,9.0,83,0.00,,---,0.00,VWS V13.01,2013-05-20 05:26:00,
2013-05-20 01:31:00,65.9,60.6,29.99,South,180,3.0,6.0,83,0.00,,---,0.00,VWS V13.01,2013-05-20 05:31:00,
2013-05-20 01:36:00,65.9,60.6,29.99,South,186,6.0,7.0,83,0.00,,---,0.00,VWS V13.01,2013-05-20 05:36:00,
2013-05-20 01:41:00,66.1,60.8,29.99,SE,142,3.0,7.0,83,0.00,,---,0.00,VWS V13.01,2013-05-20 05:41:00,
2013-05-20 01:46:00,66.1,60.8,29.98,ENE,69,0.0,7.0,83,0.00,,---,0.00,VWS V13.01,2013-05-20 05:46:00,
2013-05-20 01:51:00,66.1,60.8,29.98,ESE,115,0.0,7.0,83,0.00,,---,0.00,VWS V13.01,2013-05-20 05:51:00,
2013-05-20 01:56:00,66.0,60.7,29.98,SSE,159,2.0,7.0,83,0.00,,---,0.00,VWS V13.01,2013-05-20 05:56:00,
2013-05-20 02:01:00,65.9,60.6,29.97,South,174,0.0,1.0,83,0.00,,---,0.00,VWS V13.01,2013-05-20 06:01:00,
2013-05-20 02:06:00,65.8,60.5,29.97,ESE,115,0.0,3.0,83,0.00,,---,0.00,VWS V13.01,2013-05-20 06:06:00,
2013-05-20 02:11:00,65.8,60.5,29.97,South,174,2.0,8.0,83,0.00,,---,0.00,VWS V13.01,2013-05-20 06:11:00,
2013-05-20 02:16:00,65.8,60.5,29.97,SSE,152,2.0,8.0,83,0.00,,---,0.00,VWS V13.01,2013-05-20 06:16:00,
2013-05-20 02:21:00,65.8,60.5,29.97,SSW,206,3.0,8.0,83,0.00,,---,0.00,VWS V13.01,2013-05-20 06:21:00,
2013-05-20 02:26:00,65.7,60.4,29.97,SSW,208,1.0,8.0,83,0.00,,---,0.00,VWS V13.01,2013-05-20 06:26:00,
2013-05-20 02:31:00,65.7,60.4,29.97,SSW,211,1.0,2.0,83,0.00,,---,0.00,VWS V13.01,2013-05-20 06:31:00,
2013-05-20 02:36:00,65.6,60.3,29.97,WSW,244,0.0,3.0,83,0.00,,---,0.00,VWS V13.01,2013-05-20 06:36:00,
2013-05-20 02:41:00,65.5,60.5,29.97,WSW,244,0.0,3.0,84,0.00,,---,0.00,VWS V13.01,2013-05-20 06:41:00,
2013-05-20 02:46:00,65.3,60.3,29.96,SSE,153,0.0,3.0,84,0.00,,---,0.00,VWS V13.01,2013-05-20 06:46:00,
2013-05-20 02:51:00,65.1,60.2,29.96,SSE,153,1.0,3.0,84,0.00,,---,0.00,VWS V13.01,2013-05-20 06:51:00,
2013-05-20 02:56:00,65.0,60.0,29.97,SSE,149,0.0,3.0,84,0.00,,---,0.00,VWS V13.01,2013-05-20 06:56:00,
2013-05-20 03:01:00,64.9,60.0,29.97,SSE,147,0.0,1.0,84,0.00,,---,0.00,VWS V13.01,2013-05-20 07:01:00,
2013-05-20 03:06:00,64.8,60.2,29.97,SSE,147,1.0,1.0,85,0.00,,---,0.00,VWS V13.01,2013-05-20 07:06:00,
2013-05-20 03:11:00,64.6,60.0,29.97,SE,144,0.0,3.0,85,0.00,,---,0.00,VWS V13.01,2013-05-20 07:11:00,
2013-05-20 03:16:00,64.5,59.9,29.97,SE,144,0.0,3.0,85,0.00,,---,0.00,VWS V13.01,2013-05-20 07:16:00,
2013-05-20 03:21:00,64.3,59.7,29.96,SSE,148,2.0,3.0,85,0.00,,---,0.00,VWS V13.01,2013-05-20 07:21:00,
2013-05-20 03:26:00,64.3,60.0,29.97,SSE,155,3.0,3.0,86,0.00,,---,0.00,VWS V13.01,2013-05-20 07:26:00,
2013-05-20 03:31:00,64.3,59.7,29.97,SE,146,0.0,1.0,85,0.00,,---,0.00,VWS V13.01,2013-05-20 07:31:00,
2013-05-20 03:36:00,64.3,60.0,29.97,SE,146,0.0,2.0,86,0.00,,---,0.00,VWS V13.01,2013-05-20 07:36:00,
2013-05-20 03:41:00,64.3,60.0,29.97,SE,146,0.0,2.0,86,0.00,,---,0.00,VWS V13.01,2013-05-20 07:41:00,
2013-05-20 03:46:00,64.2,59.6,29.97,SE,146,2.0,2.0,85,0.00,,---,0.00,VWS V13.01,2013-05-20 07:46:00,
2013-05-20 03:51:00,64.2,59.9,29.97,SE,145,1.0,2.0,86,0.00,,---,0.00,VWS V13.01,2013-05-20 07:51:00,
2013-05-20 03:56:00,64.0,59.7,29.97,SE,145,0.0,2.0,86,0.00,,---,0.00,VWS V13.01,2013-05-20 07:56:00,
2013-05-20 04:01:00,64.0,59.7,29.97,ESE,106,0.0,1.0,86,0.00,,---,0.00,VWS V13.01,2013-05-20 08:01:00,
2013-05-20 04:06:00,64.0,59.7,29.98,ESE,106,0.0,2.0,86,0.00,,---,0.00,VWS V13.01,2013-05-20 08:06:00,
2013-05-20 04:11:00,63.9,59.6,29.98,ESE,106,0.0,2.0,86,0.00,,---,0.00,VWS V13.01,2013-05-20 08:11:00,
2013-05-20 04:16:00,63.7,59.4,29.98,ESE,106,0.0,2.0,86,0.00,,---,0.00,VWS V13.01,2013-05-20 08:16:00,
2013-05-20 04:21:00,63.6,59.7,29.98,ESE,106,1.0,2.0,87,0.00,,---,0.00,VWS V13.01,2013-05-20 08:21:00,
2013-05-20 04:26:00,63.6,59.7,29.98,ESE,106,1.0,2.0,87,0.00,,---,0.00,VWS V13.01,2013-05-20 08:26:00,
2013-05-20 04:31:00,63.6,59.7,29.98,SE,140,1.0,3.0,87,0.00,,---,0.00,VWS V13.01,2013-05-20 08:31:00,
2013-05-20 04:36:00,63.6,59.7,29.99,SE,140,0.0,3.0,87,0.00,,---,0.00,VWS V13.01,2013-05-20 08:36:00,
2013-05-20 04:41:00,63.7,60.1,29.99,SE,140,0.0,3.0,88,0.00,,---,0.00,VWS V13.01,2013-05-20 08:41:00,
2013-05-20 04:46:00,63.8,60.2,29.99,SE,138,1.0,3.0,88,0.00,,---,0.00,VWS V13.01,2013-05-20 08:46:00,
2013-05-20 04:51:00,63.9,60.0,29.99,SE,138,0.0,3.0,87,0.00,,---,0.00,VWS V13.01,2013-05-20 08:51:00,
2013-05-20 04:56:00,64.0,60.1,29.99,SE,144,0.0,3.0,87,0.00,,---,0.00,VWS V13.01,2013-05-20 08:56:00,
2013-05-20 05:01:00,64.2,60.3,30.00,SE,142,0.0,1.0,87,0.00,,---,0.00,VWS V13.01,2013-05-20 09:01:00,
2013-05-20 05:06:00,64.3,60.3,30.00,SE,142,0.0,3.0,87,0.00,,---,0.00,VWS V13.01,2013-05-20 09:06:00,
2013-05-20 05:11:00,64.4,60.5,30.00,SE,142,0.0,3.0,87,0.00,,---,0.00,VWS V13.01,2013-05-20 09:11:00,
2013-05-20 05:16:00,64.5,60.2,30.00,SE,142,0.0,3.0,86,0.00,,---,0.00,VWS V13.01,2013-05-20 09:16:00,
2013-05-20 05:21:00,64.6,60.3,30.00,SE,142,1.0,3.0,86,0.00,,---,0.00,VWS V13.01,2013-05-20 09:21:00,
2013-05-20 05:26:00,64.8,60.5,30.00,SE,142,0.0,3.0,86,0.00,,---,0.00,VWS V13.01,2013-05-20 09:26:00,
2013-05-20 05:31:00,64.8,60.5,30.00,SE,142,0.0,0.0,86,0.00,,---,0.00,VWS V13.01,2013-05-20 09:31:00,
2013-05-20 05:36:00,64.9,60.6,30.01,SE,142,0.0,1.0,86,0.00,,---,0.00,VWS V13.01,2013-05-20 09:36:00,
2013-05-20 05:41:00,64.9,60.6,30.01,SE,142,0.0,1.0,86,0.00,,---,0.00,VWS V13.01,2013-05-20 09:41:00,
2013-05-20 05:46:00,64.8,60.5,30.01,SE,142,0.0,1.0,86,0.00,,---,0.00,VWS V13.01,2013-05-20 09:46:00,
2013-05-20 05:51:00,64.7,60.4,30.01,SE,142,0.0,1.0,86,0.00,,---,0.00,VWS V13.01,2013-05-20 09:51:00,
2013-05-20 05:56:00,64.7,60.4,30.01,SE,142,0.0,1.0,86,0.00,,---,0.00,VWS V13.01,2013-05-20 09:56:00,
2013-05-20 06:01:00,64.6,60.7,30.01,SE,142,0.0,0.0,87,0.00,,---,0.00,VWS V13.01,2013-05-20 10:01:00,
2013-05-20 06:06:00,64.5,60.5,30.02,SE,142,0.0,1.0,87,0.00,,---,0.00,VWS V13.01,2013-05-20 10:06:00,
2013-05-20 06:11:00,64.5,60.5,30.01,SE,142,0.0,1.0,87,0.00,,---,0.00,VWS V13.01,2013-05-20 10:11:00,
2013-05-20 06:16:00,64.5,60.5,30.01,SE,142,0.0,1.0,87,0.00,,---,0.00,VWS V13.01,2013-05-20 10:16:00,
2013-05-20 06:21:00,64.4,60.5,30.01,SE,142,0.0,1.0,87,0.00,,---,0.00,VWS V13.01,2013-05-20 10:21:00,
2013-05-20 06:26:00,64.4,60.5,30.01,SE,142,0.0,1.0,87,0.00,,---,0.00,VWS V13.01,2013-05-20 10:26:00,
2013-05-20 06:31:00,64.3,60.3,30.01,SE,142,0.0,0.0,87,0.00,,---,0.00,VWS V13.01,2013-05-20 10:31:00,
2013-05-20 06:36:00,64.3,60.3,30.01,SE,142,0.0,1.0,87,0.00,,---,0.00,VWS V13.01,2013-05-20 10:36:00,
2013-05-20 06:41:00,64.2,60.3,30.01,SE,142,1.0,3.0,87,0.00,,---,0.00,VWS V13.01,2013-05-20 10:41:00,
2013-05-20 06:46:00,64.2,60.3,30.01,SE,142,0.0,3.0,87,0.00,,---,0.00,VWS V13.01,2013-05-20 10:46:00,
2013-05-20 06:51:00,64.4,60.5,30.01,SE,142,0.0,3.0,87,0.00,,---,0.00,VWS V13.01,2013-05-20 10:51:00,
2013-05-20 06:56:00,64.6,61.0,30.01,SE,142,0.0,3.0,88,0.00,,---,0.00,VWS V13.01,2013-05-20 10:56:00,
2013-05-20 07:01:00,64.7,61.1,30.01,SE,142,0.0,1.0,88,0.00,,---,0.00,VWS V13.01,2013-05-20 11:01:00,
2013-05-20 07:06:00,64.9,60.9,30.01,SE,142,0.0,2.0,87,0.00,,---,0.00,VWS V13.01,2013-05-20 11:06:00,
2013-05-20 07:11:00,65.0,61.0,30.01,SE,142,0.0,3.0,87,0.00,,---,0.00,VWS V13.01,2013-05-20 11:11:00,
2013-05-20 07:16:00,65.3,61.3,30.01,SE,140,0.0,3.0,87,0.00,,---,0.00,VWS V13.01,2013-05-20 11:16:00,
2013-05-20 07:21:00,65.6,61.3,30.01,SE,140,1.0,3.0,86,0.00,,---,0.00,VWS V13.01,2013-05-20 11:21:00,
2013-05-20 07:26:00,65.8,61.2,30.01,SE,140,0.0,3.0,85,0.00,,---,0.00,VWS V13.01,2013-05-20 11:26:00,
2013-05-20 07:31:00,66.1,61.5,30.01,SE,140,0.0,1.0,85,0.00,,---,0.00,VWS V13.01,2013-05-20 11:31:00,
2013-05-20 07:36:00,66.4,61.8,30.01,SE,140,0.0,2.0,85,0.00,,---,0.00,VWS V13.01,2013-05-20 11:36:00,
2013-05-20 07:41:00,66.7,61.7,30.01,SE,140,0.0,2.0,84,0.00,,---,0.00,VWS V13.01,2013-05-20 11:41:00,
2013-05-20 07:46:00,67.0,62.0,30.01,SE,140,0.0,2.0,84,0.00,,---,0.00,VWS V13.01,2013-05-20 11:46:00,
2013-05-20 07:51:00,67.2,61.9,30.01,SE,138,0.0,2.0,83,0.00,,---,0.00,VWS V13.01,2013-05-20 11:51:00,
2013-05-20 07:56:00,67.5,62.2,30.01,SE,146,1.0,4.0,83,0.00,,---,0.00,VWS V13.01,2013-05-20 11:56:00,
2013-05-20 08:01:00,67.8,62.5,30.01,SSE,157,1.0,4.0,83,0.00,,---,0.00,VWS V13.01,2013-05-20 12:01:00,
2013-05-20 08:06:00,68.3,62.6,30.01,SE,127,0.0,4.0,82,0.00,,---,0.00,VWS V13.01,2013-05-20 12:06:00,
2013-05-20 08:11:00,68.8,62.7,30.01,SE,140,1.0,4.0,81,0.00,,---,0.00,VWS V13.01,2013-05-20 12:11:00,
2013-05-20 08:16:00,69.6,63.2,30.01,SSW,196,4.0,5.0,80,0.00,,---,0.00,VWS V13.01,2013-05-20 12:16:00,
2013-05-20 08:21:00,70.1,62.9,30.02,SSE,160,0.0,5.0,78,0.00,,---,0.00,VWS V13.01,2013-05-20 12:21:00,
2013-05-20 08:26:00,70.4,62.8,30.02,SW,216,0.0,5.0,77,0.00,,---,0.00,VWS V13.01,2013-05-20 12:26:00,
2013-05-20 08:31:00,70.6,63.0,30.02,South,176,0.0,1.0,77,0.00,,---,0.00,VWS V13.01,2013-05-20 12:31:00,
2013-05-20 08:36:00,70.9,63.3,30.02,South,176,0.0,2.0,77,0.00,,---,0.00,VWS V13.01,2013-05-20 12:36:00,
2013-05-20 08:41:00,71.3,63.7,30.02,SE,138,1.0,3.0,77,0.00,,---,0.00,VWS V13.01,2013-05-20 12:41:00,
2013-05-20 08:46:00,71.6,63.6,30.02,SE,138,0.0,3.0,76,0.00,,---,0.00,VWS V13.01,2013-05-20 12:46:00,
2013-05-20 08:51:00,71.9,63.5,30.02,SE,138,0.0,3.0,75,0.00,,---,0.00,VWS V13.01,2013-05-20 12:51:00,
2013-05-20 08:56:00,72.1,63.4,30.02,SSE,159,0.0,3.0,74,0.00,,---,0.00,VWS V13.01,2013-05-20 12:56:00,
2013-05-20 09:01:00,72.5,63.8,30.02,SSE,163,1.0,1.0,74,0.00,,---,0.00,VWS V13.01,2013-05-20 13:01:00,
2013-05-20 09:06:00,72.6,64.2,30.02,SSE,163,0.0,2.0,75,0.00,,---,0.00,VWS V13.01,2013-05-20 13:06:00,
2013-05-20 09:11:00,72.9,63.8,30.02,SSW,210,1.0,3.0,73,0.00,,---,0.00,VWS V13.01,2013-05-20 13:11:00,
2013-05-20 09:16:00,73.1,63.9,30.02,South,184,1.0,3.0,73,0.00,,---,0.00,VWS V13.01,2013-05-20 13:16:00,
2013-05-20 09:21:00,73.9,63.9,30.01,South,181,0.0,5.0,71,0.00,,---,0.00,VWS V13.01,2013-05-20 13:21:00,
2013-05-20 09:26:00,74.4,65.2,30.01,SSW,198,0.0,5.0,73,0.00,,---,0.00,VWS V13.01,2013-05-20 13:26:00,
2013-05-20 09:31:00,74.9,64.9,30.01,South,190,8.0,8.0,71,0.00,,---,0.00,VWS V13.01,2013-05-20 13:31:00,
2013-05-20 09:36:00,75.1,64.7,30.01,SE,128,2.0,8.0,70,0.00,,---,0.00,VWS V13.01,2013-05-20 13:36:00,
2013-05-20 09:41:00,75.6,65.5,30.00,ENE,67,3.0,8.0,71,0.00,,---,0.00,VWS V13.01,2013-05-20 13:41:00,
2013-05-20 09:46:00,75.9,65.0,30.00,SSW,194,4.0,10.0,69,0.00,,---,0.00,VWS V13.01,2013-05-20 13:46:00,
2013-05-20 09:51:00,75.9,65.0,30.00,SSW,212,4.0,10.0,69,0.00,,---,0.00,VWS V13.01,2013-05-20 13:51:00,
2013-05-20 09:56:00,76.0,65.1,30.00,SSW,210,4.0,10.0,69,0.00,,---,0.00,VWS V13.01,2013-05-20 13:56:00,
2013-05-20 10:01:00,76.0,64.7,30.00,SW,229,6.0,7.0,68,0.00,,---,0.00,VWS V13.01,2013-05-20 14:01:00,
2013-05-20 10:06:00,76.0,65.1,30.00,SSW,211,4.0,7.0,69,0.00,,---,0.00,VWS V13.01,2013-05-20 14:06:00,
2013-05-20 10:11:00,75.8,64.9,30.00,WSW,239,2.0,9.0,69,0.00,,---,0.00,VWS V13.01,2013-05-20 14:11:00,
2013-05-20 10:16:00,75.7,65.2,30.00,SW,228,3.0,9.0,70,0.00,,---,0.00,VWS V13.01,2013-05-20 14:16:00,
2013-05-20 10:21:00,75.6,64.7,30.00,SW,234,6.0,9.0,69,0.00,,---,0.00,VWS V13.01,2013-05-20 14:21:00,
2013-05-20 10:26:00,75.1,64.7,30.01,SSW,211,3.0,9.0,70,0.00,,---,0.00,VWS V13.01,2013-05-20 14:26:00,
2013-05-20 10:31:00,74.9,64.5,30.01,WSW,248,4.0,6.0,70,0.00,,---,0.00,VWS V13.01,2013-05-20 14:31:00,
2013-05-20 10:36:00,74.8,64.0,30.00,SW,232,5.0,10.0,69,0.00,,---,0.00,VWS V13.01,2013-05-20 14:36:00,
2013-05-20 10:41:00,75.0,64.6,30.00,SSW,208,6.0,10.0,70,0.00,,---,0.00,VWS V13.01,2013-05-20 14:41:00,
2013-05-20 10:46:00,75.5,65.0,30.00,WSW,246,3.0,10.0,70,0.00,,---,0.00,VWS V13.01,2013-05-20 14:46:00,
2013-05-20 10:51:00,76.4,65.5,30.00,SW,219,6.0,10.0,69,0.00,,---,0.00,VWS V13.01,2013-05-20 14:51:00,
2013-05-20 10:56:00,77.1,66.2,30.00,West,267,6.0,10.0,69,0.00,,---,0.00,VWS V13.01,2013-05-20 14:56:00,
2013-05-20 11:01:00,77.1,65.3,30.00,SW,230,5.0,9.0,67,0.00,,---,0.00,VWS V13.01,2013-05-20 15:01:00,
2013-05-20 11:06:00,77.5,65.7,30.00,South,188,6.0,10.0,67,0.00,,---,0.00,VWS V13.01,2013-05-20 15:06:00,
2013-05-20 11:11:00,78.1,66.7,30.00,SW,234,7.0,10.0,68,0.00,,---,0.00,VWS V13.01,2013-05-20 15:11:00,
2013-05-20 11:16:00,78.1,65.4,29.99,WSW,258,5.0,14.0,65,0.00,,---,0.00,VWS V13.01,2013-05-20 15:16:00,
2013-05-20 11:21:00,78.1,65.8,29.99,SW,225,8.0,14.0,66,0.00,,---,0.00,VWS V13.01,2013-05-20 15:21:00,
2013-05-20 11:26:00,78.0,65.7,29.99,SW,236,5.0,14.0,66,0.00,,---,0.00,VWS V13.01,2013-05-20 15:26:00,
2013-05-20 11:31:00,78.4,66.1,29.99,SW,234,6.0,8.0,66,0.00,,---,0.00,VWS V13.01,2013-05-20 15:31:00,
2013-05-20 11:36:00,78.7,66.4,29.99,WSW,244,5.0,10.0,66,0.00,,---,0.00,VWS V13.01,2013-05-20 15:36:00,
2013-05-20 11:41:00,78.7,66.4,29.99,West,261,7.0,10.0,66,0.00,,---,0.00,VWS V13.01,2013-05-20 15:41:00,
2013-05-20 11:46:00,79.1,66.3,29.99,SSW,201,6.0,10.0,65,0.00,,---,0.00,VWS V13.01,2013-05-20 15:46:00,
2013-05-20 11:51:00,79.8,66.6,29.99,SSW,196,7.0,11.0,64,0.00,,---,0.00,VWS V13.01,2013-05-20 15:51:00,
2013-05-20 11:56:00,80.0,66.7,29.98,SW,215,5.0,11.0,64,0.00,,---,0.00,VWS V13.01,2013-05-20 15:56:00,
2013-05-20 12:01:00,80.3,66.1,29.98,South,190,9.0,12.0,62,0.00,,---,0.00,VWS V13.01,2013-05-20 16:01:00,
2013-05-20 12:06:00,80.1,66.4,29.98,SSW,202,7.0,13.0,63,0.00,,---,0.00,VWS V13.01,2013-05-20 16:06:00,
2013-05-20 12:11:00,80.2,66.5,29.98,South,184,6.0,13.0,63,0.00,,---,0.00,VWS V13.01,2013-05-20 16:11:00,
2013-05-20 12:16:00,80.3,65.6,29.98,SSW,207,7.0,13.0,61,0.00,,---,0.00,VWS V13.01,2013-05-20 16:16:00,
2013-05-20 12:21:00,80.2,66.5,29.98,SSE,157,5.0,13.0,63,0.00,,---,0.00,VWS V13.01,2013-05-20 16:21:00,
2013-05-20 12:26:00,80.1,66.4,29.98,WSW,245,11.0,13.0,63,0.00,,---,0.00,VWS V13.01,2013-05-20 16:26:00,
2013-05-20 12:31:00,80.1,66.4,29.98,WSW,247,4.0,7.0,63,0.00,,---,0.00,VWS V13.01,2013-05-20 16:31:00,
2013-05-20 12:36:00,80.4,66.7,29.98,WSW,241,5.0,10.0,63,0.00,,---,0.00,VWS V13.01,2013-05-20 16:36:00,
2013-05-20 12:41:00,80.7,66.9,29.98,SSW,194,6.0,12.0,63,0.00,,---,0.00,VWS V13.01,2013-05-20 16:41:00,
2013-05-20 12:46:00,80.8,65.6,29.98,SW,221,4.0,12.0,60,0.00,,---,0.00,VWS V13.01,2013-05-20 16:46:00,
2013-05-20 12:51:00,80.2,66.9,29.98,WSW,247,5.0,12.0,64,0.00,,---,0.00,VWS V13.01,2013-05-20 16:51:00,
2013-05-20 12:56:00,80.2,65.5,29.98,SW,224,6.0,12.0,61,0.00,,---,0.00,VWS V13.01,2013-05-20 16:56:00,
2013-05-20 13:01:00,80.4,66.7,29.98,WNW,291,3.0,6.0,63,0.00,,---,0.00,VWS V13.01,2013-05-20 17:01:00,
2013-05-20 13:06:00,81.1,67.3,29.98,WSW,237,3.0,10.0,63,0.00,,---,0.00,VWS V13.01,2013-05-20 17:06:00,
2013-05-20 13:11:00,81.2,66.0,29.98,WSW,244,3.0,12.0,60,0.00,,---,0.00,VWS V13.01,2013-05-20 17:11:00,
2013-05-20 13:16:00,81.1,66.4,29.98,SW,217,8.0,12.0,61,0.00,,---,0.00,VWS V13.01,2013-05-20 17:16:00,
2013-05-20 13:21:00,80.9,66.2,29.98,SSW,207,7.0,12.0,61,0.00,,---,0.00,VWS V13.01,2013-05-20 17:21:00,
2013-05-20 13:26:00,80.7,66.5,29.98,SW,227,8.0,14.0,62,0.00,,---,0.00,VWS V13.01,2013-05-20 17:26:00,
2013-05-20 13:31:00,81.1,66.9,29.98,WSW,250,7.0,11.0,62,0.00,,---,0.00,VWS V13.01,2013-05-20 17:31:00,
2013-05-20 13:36:00,81.4,66.2,29.98,SW,231,10.0,11.0,60,0.00,,---,0.00,VWS V13.01,2013-05-20 17:36:00,
2013-05-20 13:41:00,81.7,67.4,29.97,WSW,239,6.0,13.0,62,0.00,,---,0.00,VWS V13.01,2013-05-20 17:41:00,
2013-05-20 13:46:00,82.2,67.4,29.97,WSW,248,2.0,13.0,61,0.00,,---,0.00,VWS V13.01,2013-05-20 17:46:00,
2013-05-20 13:51:00,82.5,66.7,29.97,SW,216,5.0,13.0,59,0.00,,---,0.00,VWS V13.01,2013-05-20 17:51:00,
2013-05-20 13:56:00,82.3,67.0,29.97,West,271,4.0,13.0,60,0.00,,---,0.00,VWS V13.01,2013-05-20 17:56:00,
2013-05-20 14:02:00,82.0,66.3,29.97,WNW,284,5.0,10.0,59,0.00,,---,0.00,VWS V13.01,2013-05-20 18:02:00,
2013-05-20 14:07:00,81.6,65.4,29.97,West,271,3.0,10.0,58,0.00,,---,0.00,VWS V13.01,2013-05-20 18:07:00,
2013-05-20 14:12:00,81.3,65.6,29.97,West,274,5.0,10.0,59,0.00,,---,0.00,VWS V13.01,2013-05-20 18:12:00,
2013-05-20 14:17:00,81.9,67.1,29.97,WNW,291,5.0,10.0,61,0.00,,---,0.00,VWS V13.01,2013-05-20 18:17:00,
2013-05-20 14:22:00,82.2,66.0,29.97,West,265,6.0,11.0,58,0.00,,---,0.00,VWS V13.01,2013-05-20 18:22:00,
2013-05-20 14:27:00,81.8,67.1,29.97,WSW,258,5.0,11.0,61,0.00,,---,0.00,VWS V13.01,2013-05-20 18:27:00,
2013-05-20 14:32:00,82.2,67.4,29.97,West,267,5.0,9.0,61,0.00,,---,0.00,VWS V13.01,2013-05-20 18:32:00,
2013-05-20 14:37:00,82.4,66.2,29.97,West,261,6.0,10.0,58,0.00,,---,0.00,VWS V13.01,2013-05-20 18:37:00,
2013-05-20 14:42:00,82.6,67.3,29.96,SW,224,8.0,10.0,60,0.00,,---,0.00,VWS V13.01,2013-05-20 18:42:00,
2013-05-20 14:47:00,82.4,66.2,29.97,West,281,4.0,10.0,58,0.00,,---,0.00,VWS V13.01,2013-05-20 18:47:00,
2013-05-20 14:52:00,82.3,66.6,29.96,NNW,329,2.0,10.0,59,0.00,,---,0.00,VWS V13.01,2013-05-20 18:52:00,
2013-05-20 14:57:00,82.8,66.5,29.96,WNW,288,4.0,10.0,58,0.00,,---,0.00,VWS V13.01,2013-05-20 18:57:00,
2013-05-20 15:02:00,83.1,67.8,29.95,WSW,240,1.0,7.0,60,0.00,,---,0.00,VWS V13.01,2013-05-20 19:02:00,
2013-05-20 15:07:00,83.5,67.7,29.95,SW,215,5.0,8.0,59,0.00,,---,0.00,VWS V13.01,2013-05-20 19:07:00,
2013-05-20 15:12:00,84.0,67.1,29.95,SW,234,5.0,8.0,57,0.00,,---,0.00,VWS V13.01,2013-05-20 19:12:00,
2013-05-20 15:17:00,84.4,66.5,29.95,WSW,251,9.0,9.0,55,0.00,,---,0.00,VWS V13.01,2013-05-20 19:17:00,
2013-05-20 15:22:00,84.4,66.5,29.95,SW,235,4.0,9.0,55,0.00,,---,0.00,VWS V13.01,2013-05-20 19:22:00,
2013-05-20 15:27:00,84.3,67.4,29.95,SSW,211,3.0,9.0,57,0.00,,---,0.00,VWS V13.01,2013-05-20 19:27:00,
2013-05-20 15:32:00,84.5,66.1,29.94,WSW,249,6.0,11.0,54,0.00,,---,0.00,VWS V13.01,2013-05-20 19:32:00,
2013-05-20 15:37:00,84.8,65.8,29.94,NW,305,4.0,11.0,53,0.00,,---,0.00,VWS V13.01,2013-05-20 19:37:00,
2013-05-20 15:42:00,85.1,66.6,29.94,WNW,286,2.0,11.0,54,0.00,,---,0.00,VWS V13.01,2013-05-20 19:42:00,
2013-05-20 15:47:00,84.9,66.4,29.94,SW,233,5.0,11.0,54,0.00,,---,0.00,VWS V13.01,2013-05-20 19:47:00,
2013-05-20 15:52:00,85.0,65.4,29.94,NW,318,3.0,11.0,52,0.00,,---,0.00,VWS V13.01,2013-05-20 19:52:00,
2013-05-20 15:57:00,85.3,66.8,29.93,SSW,211,5.0,11.0,54,0.00,,---,0.00,VWS V13.01,2013-05-20 19:57:00,
2013-05-20 16:02:00,85.4,66.3,29.92,SW,232,0.0,4.0,53,0.00,,---,0.00,VWS V13.01,2013-05-20 20:02:00,
2013-05-20 16:07:00,85.4,66.9,29.92,SW,232,3.0,6.0,54,0.00,,---,0.00,VWS V13.01,2013-05-20 20:07:00,
2013-05-20 16:12:00,85.8,65.6,29.92,WNW,290,2.0,6.0,51,0.00,,---,0.00,VWS V13.01,2013-05-20 20:12:00,
2013-05-20 16:17:00,85.8,64.4,29.92,West,269,5.0,11.0,49,0.00,,---,0.00,VWS V13.01,2013-05-20 20:17:00,
2013-05-20 16:22:00,85.7,65.5,29.91,South,172,3.0,11.0,51,0.00,,---,0.00,VWS V13.01,2013-05-20 20:22:00,
2013-05-20 16:27:00,85.9,66.8,29.91,SW,223,4.0,11.0,53,0.00,,---,0.00,VWS V13.01,2013-05-20 20:27:00,
2013-05-20 16:32:00,86.4,66.7,29.91,SW,223,4.0,6.0,52,0.00,,---,0.00,VWS V13.01,2013-05-20 20:32:00,
2013-05-20 16:37:00,86.7,67.0,29.91,SW,216,2.0,6.0,52,0.00,,---,0.00,VWS V13.01,2013-05-20 20:37:00,
2013-05-20 16:42:00,87.1,65.1,29.91,WNW,292,2.0,7.0,48,0.00,,---,0.00,VWS V13.01,2013-05-20 20:42:00,
2013-05-20 16:47:00,87.2,65.7,29.91,WSW,256,4.0,7.0,49,0.00,,---,0.00,VWS V13.01,2013-05-20 20:47:00,
2013-05-20 16:52:00,86.5,65.7,29.91,West,281,1.0,9.0,50,0.00,,---,0.00,VWS V13.01,2013-05-20 20:52:00,
2013-05-20 16:57:00,86.2,65.4,29.91,SW,221,5.0,9.0,50,0.00,,---,0.00,VWS V13.01,2013-05-20 20:57:00,
2013-05-20 17:02:00,86.3,64.9,29.91,South,169,3.0,6.0,49,0.00,,---,0.00,VWS V13.01,2013-05-20 21:02:00,
2013-05-20 17:07:00,86.4,65.6,29.91,SSW,202,3.0,6.0,50,0.00,,---,0.00,VWS V13.01,2013-05-20 21:07:00,
2013-05-20 17:12:00,86.7,66.4,29.90,SW,223,4.0,7.0,51,0.00,,---,0.00,VWS V13.01,2013-05-20 21:12:00,
2013-05-20 17:17:00,87.0,66.7,29.90,WSW,241,3.0,7.0,51,0.00,,---,0.00,VWS V13.01,2013-05-20 21:17:00,
2013-05-20 17:22:00,86.9,66.6,29.90,West,271,2.0,7.0,51,0.00,,---,0.00,VWS V13.01,2013-05-20 21:22:00,
2013-05-20 17:27:00,86.9,66.0,29.90,SW,229,3.0,7.0,50,0.00,,---,0.00,VWS V13.01,2013-05-20 21:27:00,
2013-05-20 17:32:00,86.7,65.3,29.90,SSW,207,2.0,4.0,49,0.00,,---,0.00,VWS V13.01,2013-05-20 21:32:00,
2013-05-20 17:37:00,86.9,66.0,29.89,West,275,2.0,4.0,50,0.00,,---,0.00,VWS V13.01,2013-05-20 21:37:00,
2013-05-20 17:42:00,87.0,66.1,29.89,SW,235,3.0,7.0,50,0.00,,---,0.00,VWS V13.01,2013-05-20 21:42:00,
2013-05-20 17:47:00,86.8,65.9,29.90,WSW,246,1.0,7.0,50,0.00,,---,0.00,VWS V13.01,2013-05-20 21:47:00,
2013-05-20 17:52:00,86.8,65.9,29.89,WSW,237,3.0,7.0,50,0.00,,---,0.00,VWS V13.01,2013-05-20 21:52:00,
2013-05-20 17:57:00,86.5,65.1,29.90,SW,217,5.0,9.0,49,0.00,,---,0.00,VWS V13.01,2013-05-20 21:57:00,
2013-05-20 18:02:00,86.3,66.1,29.90,NW,321,6.0,10.0,51,0.00,,---,0.00,VWS V13.01,2013-05-20 22:02:00,
2013-05-20 18:07:00,86.3,65.5,29.89,WSW,256,2.0,10.0,50,0.00,,---,0.00,VWS V13.01,2013-05-20 22:07:00,
2013-05-20 18:12:00,86.1,65.9,29.89,WSW,239,7.0,10.0,51,0.00,,---,0.00,VWS V13.01,2013-05-20 22:12:00,
2013-05-20 18:17:00,85.8,65.0,29.89,SW,226,9.0,10.0,50,0.00,,---,0.00,VWS V13.01,2013-05-20 22:17:00,
2013-05-20 18:22:00,85.5,64.8,29.89,SW,231,6.0,10.0,50,0.00,,---,0.00,VWS V13.01,2013-05-20 22:22:00,
2013-05-20 18:27:00,85.4,65.2,29.90,SW,223,4.0,10.0,51,0.00,,---,0.00,VWS V13.01,2013-05-20 22:27:00,
2013-05-20 18:32:00,85.4,65.8,29.89,WSW,238,6.0,10.0,52,0.00,,---,0.00,VWS V13.01,2013-05-20 22:32:00,
2013-05-20 18:37:00,85.2,66.2,29.89,SW,232,4.0,10.0,53,0.00,,---,0.00,VWS V13.01,2013-05-20 22:37:00,
2013-05-20 18:42:00,85.2,65.6,29.89,SSW,199,2.0,10.0,52,0.00,,---,0.00,VWS V13.01,2013-05-20 22:42:00,
2013-05-20 18:47:00,85.2,65.6,29.89,SW,214,3.0,10.0,52,0.00,,---,0.00,VWS V13.01,2013-05-20 22:47:00,
2013-05-20 18:52:00,85.1,65.5,29.89,SSW,210,1.0,10.0,52,0.00,,---,0.00,VWS V13.01,2013-05-20 22:52:00,
2013-05-20 18:57:00,85.0,65.4,29.89,SW,217,3.0,10.0,52,0.00,,---,0.00,VWS V13.01,2013-05-20 22:57:00,
2013-05-20 19:02:00,84.8,65.2,29.88,SW,236,2.0,7.0,52,0.00,,---,0.00,VWS V13.01,2013-05-20 23:02:00,
2013-05-20 19:07:00,84.5,66.1,29.89,WSW,240,2.0,7.0,54,0.00,,---,0.00,VWS V13.01,2013-05-20 23:07:00,
2013-05-20 19:12:00,84.5,66.1,29.89,SW,218,4.0,7.0,54,0.00,,---,0.00,VWS V13.01,2013-05-20 23:12:00,
2013-05-20 19:17:00,84.4,65.9,29.89,West,259,1.0,7.0,54,0.00,,---,0.00,VWS V13.01,2013-05-20 23:17:00,
2013-05-20 19:22:00,84.1,65.7,29.89,SSW,212,5.0,7.0,54,0.00,,---,0.00,VWS V13.01,2013-05-20 23:22:00,
2013-05-20 19:27:00,83.7,66.3,29.89,SW,215,2.0,7.0,56,0.00,,---,0.00,VWS V13.01,2013-05-20 23:27:00,
2013-05-20 19:32:00,83.3,66.0,29.89,SW,218,4.0,6.0,56,0.00,,---,0.00,VWS V13.01,2013-05-20 23:32:00,
2013-05-20 19:37:00,82.9,65.6,29.90,SSW,208,3.0,8.0,56,0.00,,---,0.00,VWS V13.01,2013-05-20 23:37:00,
2013-05-20 19:42:00,82.5,65.8,29.90,SW,219,2.0,8.0,57,0.00,,---,0.00,VWS V13.01,2013-05-20 23:42:00,
2013-05-20 19:47:00,82.2,65.5,29.90,SW,230,6.0,8.0,57,0.00,,---,0.00,VWS V13.01,2013-05-20 23:47:00,
2013-05-20 19:52:00,82.0,65.8,29.90,SSW,213,3.0,8.0,58,0.00,,---,0.00,VWS V13.01,2013-05-20 23:52:00,
2013-05-20 19:57:00,81.7,65.5,29.90,SW,227,2.0,8.0,58,0.00,,---,0.00,VWS V13.01,2013-05-20 23:57:00,
2013-05-20 20:02:00,81.4,65.7,29.90,SW,223,1.0,3.0,59,0.00,,---,0.00,VWS V13.01,2013-05-21 00:02:00,
2013-05-20 20:07:00,81.2,66.0,29.89,SSW,213,2.0,5.0,60,0.00,,---,0.00,VWS V13.01,2013-05-21 00:07:00,
2013-05-20 20:12:00,80.9,65.7,29.89,South,184,1.0,5.0,60,0.00,,---,0.00,VWS V13.01,2013-05-21 00:12:00,
2013-05-20 20:17:00,80.7,66.0,29.89,SW,219,2.0,5.0,61,0.00,,---,0.00,VWS V13.01,2013-05-21 00:17:00,
2013-05-20 20:22:00,80.5,65.8,29.89,SW,221,2.0,5.0,61,0.00,,---,0.00,VWS V13.01,2013-05-21 00:22:00,
2013-05-20 20:27:00,80.2,66.0,29.89,SW,227,2.0,5.0,62,0.00,,---,0.00,VWS V13.01,2013-05-21 00:27:00,
2013-05-20 20:32:00,80.0,65.8,29.89,SW,219,3.0,5.0,62,0.00,,---,0.00,VWS V13.01,2013-05-21 00:32:00,
2013-05-20 20:38:00,79.8,66.1,29.90,SW,223,2.0,5.0,63,0.00,,---,0.00,VWS V13.01,2013-05-21 00:38:00,
2013-05-20 20:43:00,79.5,65.8,29.90,SSW,207,0.0,5.0,63,0.00,,---,0.00,VWS V13.01,2013-05-21 00:43:00,
2013-05-20 20:48:00,79.1,65.9,29.89,SSW,207,0.0,5.0,64,0.00,,---,0.00,VWS V13.01,2013-05-21 00:48:00,
2013-05-20 20:53:00,78.6,65.9,29.90,SSW,207,0.0,5.0,65,0.00,,---,0.00,VWS V13.01,2013-05-21 00:53:00,
2013-05-20 20:58:00,78.2,65.9,29.89,SSW,207,0.0,5.0,66,0.00,,---,0.00,VWS V13.01,2013-05-21 00:58:00,
2013-05-20 21:03:00,77.5,65.7,29.89,SSW,198,0.0,1.0,67,0.00,,---,0.00,VWS V13.01,2013-05-21 01:03:00,
2013-05-20 21:08:00,77.0,65.6,29.90,SSW,192,0.0,2.0,68,0.00,,---,0.00,VWS V13.01,2013-05-21 01:08:00,
2013-05-20 21:13:00,76.5,65.6,29.90,SSW,192,0.0,2.0,69,0.00,,---,0.00,VWS V13.01,2013-05-21 01:13:00,
2013-05-20 21:18:00,76.0,65.5,29.90,SSW,192,0.0,2.0,70,0.00,,---,0.00,VWS V13.01,2013-05-21 01:18:00,
2013-05-20 21:23:00,75.5,65.4,29.90,SSW,192,0.0,2.0,71,0.00,,---,0.00,VWS V13.01,2013-05-21 01:23:00,
2013-05-20 21:28:00,75.2,65.6,29.89,SSW,192,0.0,2.0,72,0.00,,---,0.00,VWS V13.01,2013-05-21 01:28:00,
2013-05-20 21:33:00,74.8,65.2,29.89,SSW,192,0.0,1.0,72,0.00,,---,0.00,VWS V13.01,2013-05-21 01:33:00,
2013-05-20 21:38:00,74.3,65.1,29.90,SSW,192,0.0,1.0,73,0.00,,---,0.00,VWS V13.01,2013-05-21 01:38:00,
2013-05-20 21:43:00,74.0,64.8,29.90,SSW,192,0.0,1.0,73,0.00,,---,0.00,VWS V13.01,2013-05-21 01:43:00,
2013-05-20 21:48:00,73.7,64.9,29.90,SSW,192,0.0,1.0,74,0.00,,---,0.00,VWS V13.01,2013-05-21 01:48:00,
2013-05-20 21:53:00,73.4,65.0,29.90,SSW,192,0.0,1.0,75,0.00,,---,0.00,VWS V13.01,2013-05-21 01:53:00,
2013-05-20 21:58:00,73.2,64.8,29.91,SSW,192,0.0,1.0,75,0.00,,---,0.00,VWS V13.01,2013-05-21 01:58:00,
2013-05-20 22:03:00,72.9,64.5,29.91,SSW,192,0.0,0.0,75,0.00,,---,0.00,VWS V13.01,2013-05-21 02:03:00,
2013-05-20 22:08:00,72.7,64.7,29.92,SSW,192,0.0,0.0,76,0.00,,---,0.00,VWS V13.01,2013-05-21 02:08:00,
2013-05-20 22:13:00,72.5,64.9,29.92,SSW,192,0.0,0.0,77,0.00,,---,0.00,VWS V13.01,2013-05-21 02:13:00,
2013-05-20 22:18:00,72.3,65.1,29.92,SSW,192,0.0,0.0,78,0.00,,---,0.00,VWS V13.01,2013-05-21 02:18:00,
2013-05-20 22:23:00,72.2,65.0,29.92,SSW,192,0.0,0.0,78,0.00,,---,0.00,VWS V13.01,2013-05-21 02:23:00,
2013-05-20 22:28:00,72.0,65.1,29.92,SSW,192,0.0,0.0,79,0.00,,---,0.00,VWS V13.01,2013-05-21 02:28:00,
2013-05-20 22:33:00,71.9,65.4,29.92,SSW,192,0.0,0.0,80,0.00,,---,0.00,VWS V13.01,2013-05-21 02:33:00,
2013-05-20 22:38:00,71.8,65.3,29.92,SSW,192,1.0,1.0,80,0.00,,---,0.00,VWS V13.01,2013-05-21 02:38:00,
2013-05-20 22:43:00,71.7,65.2,29.92,SSW,192,0.0,1.0,80,0.00,,---,0.00,VWS V13.01,2013-05-21 02:43:00,
2013-05-20 22:48:00,71.6,65.5,29.92,SSW,192,0.0,1.0,81,0.00,,---,0.00,VWS V13.01,2013-05-21 02:48:00,
2013-05-20 22:53:00,71.5,65.4,29.92,SSW,192,0.0,1.0,81,0.00,,---,0.00,VWS V13.01,2013-05-21 02:53:00,
2013-05-20 22:58:00,71.4,65.6,29.92,SSW,192,0.0,1.0,82,0.00,,---,0.00,VWS V13.01,2013-05-21 02:58:00,
2013-05-20 23:03:00,71.3,65.2,29.92,SSW,192,0.0,0.0,81,0.00,,---,0.00,VWS V13.01,2013-05-21 03:03:00,
2013-05-20 23:08:00,71.1,65.0,29.92,SSW,192,0.0,0.0,81,0.00,,---,0.00,VWS V13.01,2013-05-21 03:08:00,
2013-05-20 23:13:00,71.0,65.2,29.92,SSW,192,0.0,0.0,82,0.00,,---,0.00,VWS V13.01,2013-05-21 03:13:00,
2013-05-20 23:18:00,70.8,65.0,29.92,SSW,192,0.0,0.0,82,0.00,,---,0.00,VWS V13.01,2013-05-21 03:18:00,
2013-05-20 23:23:00,70.7,65.3,29.92,SSW,192,0.0,0.0,83,0.00,,---,0.00,VWS V13.01,2013-05-21 03:23:00,
2013-05-20 23:28:00,70.7,65.3,29.92,SSW,192,0.0,0.0,83,0.00,,---,0.00,VWS V13.01,2013-05-21 03:28:00,
2013-05-20 23:33:00,70.6,65.2,29.92,SSW,192,0.0,0.0,83,0.00,,---,0.00,VWS V13.01,2013-05-21 03:33:00,
2013-05-20 23:38:00,70.6,65.2,29.93,SSW,192,0.0,0.0,83,0.00,,---,0.00,VWS V13.01,2013-05-21 03:38:00,
2013-05-20 23:43:00,70.5,65.1,29.93,SSW,192,0.0,0.0,83,0.00,,---,0.00,VWS V13.01,2013-05-21 03:43:00,
2013-05-20 23:48:00,70.4,64.7,29.92,SSW,192,0.0,0.0,82,0.00,,---,0.00,VWS V13.01,2013-05-21 03:48:00,
2013-05-20 23:53:00,70.3,64.6,29.93,SSW,192,0.0,0.0,82,0.00,,---,0.00,VWS V13.01,2013-05-21 03:53:00,
2013-05-20 23:58:00,70.2,64.8,29.93,SSW,192,0.0,0.0,83,0.00,,---,0.00,VWS V13.01,2013-05-21 03:58:00,